Location: Unspecified
(51.3762°N, 0.0000°E)
Time: 19:50:13
(UTC+00:00)

O/OREOS (USA 219) - Pass Details

Date: 30 July 2019
Orbit: 621 x 646 km, 72.0° (Epoch: 22 May)

Event Time Altitude Azimuth Distance (km) Brightness Sun altitude
Exits shadow 01:49:02 17° 156° (SSE) 1,597 ? -16.5°
Maximum altitude 01:51:40 30° 106° (ESE) 1,145 ? -16.3°
Drops below altitude 10° 01:55:37 10° 46° (NE) 2,026 ? -16.1°
Sets 01:58:05 0° 36° (NE) 2,935 ? -15.9°
